Regional Weather Roundup
Issued by NWS

Home | Current Version | Previous Version | Graphics & Text | Print | Product List | Glossary On
Versions: 1 2 3 4 5 6 7 8 9 10 11 12 13 14 15 16 17 18 19 20 21 22 23 24 25 26 27
000
ASUS45 KBOI 280910
RWRID

IDAHO REGIONAL WEATHER ROUNDUP
NATIONAL WEATHER SERVICE BOISE ID
300 AM MDT SAT MAY 28 2016

NOTE: "FAIR" INDICATES FEW OR NO CLOUDS BELOW 12000 FEET
WITH NO SIGNIFICANT WEATHER AND/OR OBSTRUCTIONS TO VISIBILITY

IDZ012-014-281000-
SOUTHWEST IDAHO


CITY           SKY/WX    TMP DP  RH WIND       PRES   REMARKS
BOISE          PTCLDY    48  32  53 W6        30.02R
CALDWELL       PTCLDY    48  32  53 SW9       30.03S
MOUNTAIN HOME  CLEAR     49  37  61 NW10      30.01R
$$

IDZ016-017-281000-
SOUTHCENTRAL IDAHO


CITY           SKY/WX    TMP DP  RH WIND       PRES   REMARKS
BURLEY         CLEAR     44  32  62 SW13      29.99R
JEROME         CLEAR     46  29  51 S7        30.01R
TWIN FALLS     CLEAR     46  26  45 SW15      30.01R
$$

IDZ019>023-281000-
SOUTHEAST IDAHO


CITY           SKY/WX    TMP DP  RH WIND       PRES   REMARKS
IDAHO FALLS    CLEAR     43  32  65 SW5       29.99S
POCATELLO      CLEAR     49  26  41 S14       29.99S
REXBURG        CLEAR     44  34  67 SW8       29.98R
$$

IDZ006-010-011-018-031-032-281000-
CENTRAL IDAHO MOUNTAINS


CITY           SKY/WX    TMP DP  RH WIND       PRES   REMARKS
MCCALL         CLEAR     38  30  73 N5        30.02S WCI  34
HAILEY         CLEAR     39  32  75 NW9       29.99S WCI  33
STANLEY          N/A     29  24  82 S6        30.04R WCI  23
SALMON         CLOUDY    48  37  66 CALM      29.99F
CHALLIS        MOCLDY    41  34  76 CALM      30.00S
$$

IDZ002-004-006-007-026-281000-
NORTHERN IDAHO


CITY           SKY/WX    TMP DP  RH WIND       PRES   REMARKS
LEWISTON       MOCLDY    50  39  66 S3        30.03F
LOWELL           N/A     47  43  86 CALM      30.07S
COEUR D`ALENE  PTCLDY    48  36  61 SE8       29.97S
MULLAN PASS    MOCLDY    33  27  78 VRB3      30.01F
$$




USA.gov is the U.S. government's official web portal to all federal, state and local government web resources and services.